Mojave, CA

1:18 AM PDT on May 29, 2017 (GMT -0700)
Mojave

Weather History for KMHV - December, 2013

Change the Weather History Date:

Tuesday, December 3, 2013

  Actual Average Record
Temperature  
Mean Temperature 49 °F -  
Max Temperature 59 °F 60 °F 76 °F (1972)
Min Temperature 39 °F 34 °F 26 °F (1967)
Degree Days  
Heating Degree Days 16    
Moisture  
Dew Point 35 °F    
Average Humidity 57    
Maximum Humidity 76    
Minimum Humidity 23    
Precipitation  
Precipitation 0.00 in - - ()
Sea Level Pressure  
Sea Level Pressure 29.76 in    
Wind  
Wind Speed 19 mph (West)    
Max Wind Speed 37 mph    
Max Gust Speed 52 mph    
Visibility 9 miles    
Events      
Averages and records for this station are not official NWS values.
T = Trace of Precipitation, MM = Missing Value Source: NWS Daily Summary

Daily Weather History Graph

Daily Weather History Graph

Search for Another Location

Airport or City:

Trip Planner

Search our weather history database for the weather conditions in past years. The results will help you decide how hot, cold, wet, or windy it might be!

Date:

Astronomy

Dec. 03, 2013 Rise Set
Actual Time 6:44 AM PST 4:40 PM PST
Civil Twilight 6:16 AM PST 5:08 PM PST
Nautical Twilight 5:45 AM PST 5:39 PM PST
Astronomical Twilight 5:14 AM PST 6:10 PM PST
Moon 7:19 AM PST (12/3) 5:48 PM PST (12/3)
Length of Visible Light 10h 51m
Length of Day
9h 56m
New Moon, 1% of the Moon is Illuminated
Dec 3
New Moon
Dec 9
First Quarter
Dec 17
Full
Dec 25
Last Quarter
Jan 1
New

Hourly Weather History & Observations

Time (PST) Temp. Windchill Dew Point Humidity Pressure Visibility Wind Dir Wind Speed Gust Speed Precip Events Conditions
12:15 AM 57.2 °F - 19.4 °F 23% 29.90 in 10.0 mi SW 13.8 mph 17.3 mph N/A   Clear
12:35 AM 57.2 °F - 19.4 °F 23% 29.89 in 10.0 mi WSW 8.1 mph - N/A   Clear
12:55 AM 57.2 °F - 21.2 °F 25% 29.89 in 10.0 mi Calm Calm - N/A   Clear
1:15 AM 57.2 °F - 23.0 °F 27% 29.89 in 10.0 mi West 9.2 mph - N/A   Clear
1:35 AM 55.4 °F - 24.8 °F 31% 29.88 in 10.0 mi West 13.8 mph 18.4 mph N/A   Clear
1:55 AM 55.4 °F - 26.6 °F 33% 29.87 in 10.0 mi WNW 15.0 mph - N/A   Clear
2:15 AM 55.4 °F - 28.4 °F 36% 29.88 in 10.0 mi WNW 15.0 mph 23.0 mph N/A   Clear
2:35 AM 53.6 °F - 28.4 °F 38% 29.86 in 10.0 mi WNW 18.4 mph 24.2 mph N/A   Clear
2:55 AM 53.6 °F - 28.4 °F 38% 29.84 in 10.0 mi NW 21.9 mph - N/A   Clear
3:15 AM 51.8 °F - 28.4 °F 41% 29.83 in 10.0 mi WNW 31.1 mph 36.8 mph N/A   Clear
3:35 AM 51.8 °F - 30.2 °F 44% 29.83 in 10.0 mi WNW 28.8 mph 36.8 mph N/A   Clear
3:55 AM 50.0 °F - 32.0 °F 50% 29.82 in 10.0 mi NW 27.6 mph 38.0 mph N/A   Clear
4:15 AM 50.0 °F - 32.0 °F 50% 29.82 in 10.0 mi NW 29.9 mph 38.0 mph N/A   Clear
4:35 AM 50.0 °F - 35.6 °F 58% 29.84 in 8.0 mi WNW 17.3 mph - N/A   Clear
4:55 AM 48.2 °F - 35.6 °F 62% 29.82 in 8.0 mi WNW 19.6 mph 25.3 mph N/A   Clear
5:15 AM 48.2 °F - 35.6 °F 62% 29.84 in 8.0 mi WNW 21.9 mph 32.2 mph N/A   Clear
5:35 AM 48.2 °F - 37.4 °F 66% 29.84 in 7.0 mi West 15.0 mph 20.7 mph N/A   Clear
5:55 AM 48.2 °F - 37.4 °F 66% 29.85 in 7.0 mi West 12.7 mph - N/A   Clear
6:15 AM 48.2 °F - 37.4 °F 66% 29.85 in 6.0 mi West 9.2 mph - N/A   Clear
6:35 AM 48.2 °F - 37.4 °F 66% 29.85 in 6.0 mi West 6.9 mph 18.4 mph N/A   Clear
6:55 AM 46.4 °F 44.3 °F 37.4 °F 71% 29.85 in 5.0 mi SW 4.6 mph - N/A   Clear
7:15 AM 48.2 °F - 37.4 °F 66% 29.84 in 5.0 mi WSW 6.9 mph - N/A   Clear
7:35 AM 48.2 °F - 37.4 °F 66% 29.84 in 5.0 mi SW 13.8 mph 19.6 mph N/A   Clear
7:55 AM 48.2 °F - 37.4 °F 66% 29.84 in 5.0 mi WSW 11.5 mph 21.9 mph N/A   Clear
8:15 AM 50.0 °F - 37.4 °F 62% 29.84 in 5.0 mi SW 13.8 mph 24.2 mph N/A   Clear
8:35 AM 50.0 °F - 39.2 °F 66% 29.85 in 5.0 mi West 18.4 mph 25.3 mph N/A   Clear
8:55 AM 51.8 °F - 39.2 °F 62% 29.83 in 5.0 mi West 18.4 mph 27.6 mph N/A   Partly Cloudy
9:15 AM 53.6 °F - 39.2 °F 58% 29.83 in 6.0 mi WSW 19.6 mph 25.3 mph N/A   Clear
9:35 AM 53.6 °F - 39.2 °F 58% 29.83 in 7.0 mi SW 13.8 mph 28.8 mph N/A   Clear
9:55 AM 55.4 °F - 39.2 °F 54% 29.82 in 7.0 mi WSW 23.0 mph 29.9 mph N/A   Partly Cloudy
10:15 AM 55.4 °F - 39.2 °F 54% 29.82 in 7.0 mi West 23.0 mph 27.6 mph N/A   Partly Cloudy
10:35 AM 57.2 °F - 39.2 °F 51% 29.80 in 9.0 mi West 21.9 mph 28.8 mph N/A   Clear
10:55 AM 57.2 °F - 39.2 °F 51% 29.78 in 10.0 mi West 20.7 mph 31.1 mph N/A   Clear
11:15 AM 59.0 °F - 39.2 °F 48% 29.77 in 10.0 mi West 24.2 mph 32.2 mph N/A   Clear
11:35 AM 59.0 °F - 39.2 °F 48% 29.76 in 10.0 mi West 21.9 mph 27.6 mph N/A   Clear
11:55 AM 59.0 °F - 39.2 °F 48% 29.74 in 10.0 mi West 28.8 mph 35.7 mph N/A   Clear
12:15 PM 59.0 °F - 39.2 °F 48% 29.73 in 10.0 mi West 27.6 mph 35.7 mph N/A   Clear
12:35 PM 57.2 °F - 39.2 °F 51% 29.73 in 10.0 mi West 29.9 mph 36.8 mph N/A   Clear
12:55 PM 57.2 °F - 39.2 °F 51% 29.72 in 10.0 mi West 21.9 mph 31.1 mph N/A   Clear
1:15 PM 59.0 °F - 39.2 °F 48% 29.71 in 10.0 mi West 20.7 mph 33.4 mph N/A   Partly Cloudy
1:35 PM 59.0 °F - 41.0 °F 51% 29.70 in 10.0 mi West 21.9 mph 31.1 mph N/A   Clear
1:55 PM 59.0 °F - 41.0 °F 51% 29.69 in 10.0 mi West 24.2 mph 35.7 mph N/A   Clear
2:15 PM 57.2 °F - 41.0 °F 55% 29.68 in 10.0 mi West 29.9 mph 42.6 mph N/A   Clear
2:35 PM 57.2 °F - 41.0 °F 55% 29.68 in 10.0 mi West 25.3 mph 39.1 mph N/A   Clear
2:55 PM 57.2 °F - 41.0 °F 55% 29.68 in 10.0 mi WSW 27.6 mph 36.8 mph N/A   Clear
3:15 PM 57.2 °F - 41.0 °F 55% 29.67 in 10.0 mi WSW 32.2 mph 41.4 mph N/A   Clear
3:35 PM 55.4 °F - 41.0 °F 58% 29.67 in 9.0 mi WSW 31.1 mph 42.6 mph N/A   Clear
3:55 PM 53.6 °F - 41.0 °F 62% 29.67 in 9.0 mi WSW 31.1 mph 38.0 mph N/A   Clear
4:15 PM 53.6 °F - 41.0 °F 62% 29.67 in 9.0 mi WSW 28.8 mph 40.3 mph N/A   Partly Cloudy
4:35 PM 51.8 °F - 41.0 °F 67% 29.67 in 9.0 mi WSW 28.8 mph 36.8 mph N/A   Mostly Cloudy
4:55 PM 51.8 °F - 41.0 °F 67% 29.66 in 9.0 mi West 27.6 mph 39.1 mph N/A   Partly Cloudy
5:15 PM 51.8 °F - 41.0 °F 67% 29.67 in 10.0 mi West 28.8 mph 39.1 mph N/A   Clear
5:35 PM 50.0 °F - 41.0 °F 71% 29.67 in 10.0 mi WSW 28.8 mph 35.7 mph N/A   Clear
5:55 PM 50.0 °F - 41.0 °F 71% 29.67 in 10.0 mi WSW 25.3 mph 35.7 mph N/A   Clear
6:15 PM 50.0 °F - 41.0 °F 71% 29.66 in 10.0 mi WSW 27.6 mph 34.5 mph N/A   Clear
6:35 PM 50.0 °F - 41.0 °F 71% 29.66 in 10.0 mi WSW 19.6 mph 32.2 mph N/A   Clear
6:55 PM 50.0 °F - 41.0 °F 71% 29.66 in 10.0 mi WSW 20.7 mph 29.9 mph N/A   Mostly Cloudy
7:15 PM 50.0 °F - 41.0 °F 71% 29.66 in 10.0 mi WSW 23.0 mph 28.8 mph N/A   Mostly Cloudy
7:35 PM 50.0 °F - 41.0 °F 71% 29.66 in 9.0 mi WSW 17.3 mph 26.5 mph N/A   Overcast
7:55 PM 48.2 °F - 39.2 °F 71% 29.66 in 10.0 mi WSW 24.2 mph 31.1 mph N/A   Mostly Cloudy
8:15 PM 44.6 °F 34.7 °F 37.4 °F 76% 29.67 in 10.0 mi West 29.9 mph 34.5 mph N/A   Scattered Clouds
8:35 PM 42.8 °F 32.1 °F 35.6 °F 76% 29.68 in 10.0 mi West 31.1 mph 38.0 mph N/A   Mostly Cloudy
8:55 PM 41.0 °F 29.1 °F 32.0 °F 70% 29.70 in 10.0 mi West 34.5 mph 43.7 mph N/A   Overcast
9:15 PM 41.0 °F 30.0 °F 32.0 °F 70% 29.70 in 10.0 mi West 28.8 mph 42.6 mph N/A   Mostly Cloudy
9:35 PM 39.2 °F 26.3 °F 32.0 °F 75% 29.69 in 8.0 mi West 36.8 mph 44.9 mph N/A   Scattered Clouds
9:55 PM 39.2 °F 26.6 °F 30.2 °F 70% 29.70 in 10.0 mi West 34.5 mph 47.2 mph N/A   Partly Cloudy
10:15 PM 39.2 °F 26.3 °F 26.6 °F 61% 29.70 in 10.0 mi WNW 36.8 mph 51.8 mph N/A   Clear
10:35 PM 39.2 °F 27.8 °F 26.6 °F 61% 29.72 in 10.0 mi West 27.6 mph 46.0 mph N/A   Clear
10:55 PM 39.2 °F 27.2 °F 26.6 °F 61% 29.71 in 10.0 mi West 31.1 mph 44.9 mph N/A   Clear
11:15 PM 39.2 °F 26.6 °F 26.6 °F 61% 29.72 in 10.0 mi WNW 34.5 mph 46.0 mph N/A   Clear
11:35 PM 39.2 °F 26.3 °F 26.6 °F 61% 29.73 in 10.0 mi WNW 36.8 mph 44.9 mph N/A   Clear
11:55 PM 39.2 °F 26.6 °F 26.6 °F 61% 29.73 in 10.0 mi West 34.5 mph 44.9 mph N/A   Clear